Regional Weather Roundup
Issued by NWS

Home | Current Version | Previous Version | Graphics & Text | Print | Product List | Glossary On
Versions: 1 2 3 4 5 6 7 8 9 10 11 12 13 14 15 16 17 18 19 20 21 22 23 24 25 26 27 28 29 30 31 32 33 34 35 36 37 38 39 40 41 42 43 44 45 46 47 48 49 50
000
ASUS43 KLMK 201702
RWRKY
KENTUCKY REGIONAL WEATHER ROUNDUP
NATIONAL WEATHER SERVICE LOUISVILLE KY
100 PM EDT SAT SEP 20 2014

NOTE "FAIR" INDICATES FEW OR NO CLOUDS BELOW 12,000 FEET
WITH NO SIGNIFICANT WEATHER AND/OR OBSTRUCTIONS TO VISIBILITY.

KYZ001>023-026-027-061>063-070>075-201800-
WESTERN AND SOUTH CENTRAL KENTUCKY

CITY           SKY/WX    TMP DP  RH WIND       PRES   REMARKS
PADUCAH        MOSUNNY   84  68  58 SW10      30.06F
HENDERSON      CLOUDY    82  66  57 SW9       30.05F
OWENSBORO      MOSUNNY   83  67  58 SW10G18   30.07F
HOPKINSVILLE   SUNNY     82  68  62 SW10      30.09F
BOWLING GREEN  PTSUNNY   81  64  56 S12G22    30.10F
GLASGOW        SUNNY     79  62  55 SW9       30.12F
$$

KYZ024-025-028>034-038-045-046-053-201800-
NORTH CENTRAL KENTUCKY

CITY           SKY/WX    TMP DP  RH WIND       PRES   REMARKS
LOUISVILLE/SDF CLOUDY    81  66  60 SW12      30.07F
LOUISVILLE/LOU MOSUNNY   79  66  64 SW10G20   30.08F
FORT KNOX      PTSUNNY   79  66  63 SW14      30.08F
$$

KYZ035>037-039>044-047>052-055>060-089>105-201800-
NORTHEAST KENTUCKY

CITY           SKY/WX    TMP DP  RH WIND       PRES   REMARKS
LEXINGTON      MOSUNNY   80  62  54 SW18G25   30.11F
COVINGTON      PTSUNNY   77  65  66 SW12      30.07F
FRANKFORT      SUNNY     78  63  59 SW13      30.09F
$$

KYZ054-064>069-076>088-106>120-201800-
SOUTHEAST KENTUCKY

CITY           SKY/WX    TMP DP  RH WIND       PRES   REMARKS
JACKSON        MOSUNNY   78  63  59 VRB5      30.15F
LONDON           N/A     78  60  53 SW12      30.16F
SOMERSET       MOSUNNY   77  61  57 S6        30.15F
MIDDLESBORO    SUNNY     78  60  54 SW8       30.16F
MONTICELLO     MOSUNNY   82  63  52 S7        30.15F
$$




USA.gov is the U.S. government's official web portal to all federal, state and local government web resources and services.